Regional Weather Roundup
Issued by NWS

Current Version | Previous Version | Text Only | Print | Product List | Glossary On
Versions: 1 2 3 4 5 6 7 8 9 10 11 12 13 14 15 16 17 18 19 20 21 22 23 24 25 26 27 28 29 30 31 32 33 34 35 36 37 38 39 40 41 42 43 44 45 46 47 48 49 50
000
ASUS42 KTBW 260418
RWRFL
FLORIDA REGIONAL WEATHER ROUNDUP
NATIONAL WEATHER SERVICE TAMPA BAY RUSKIN FL
1200 AM EDT FRI MAY 26 2017

NOTE: "FAIR" INDICATES FEW OR NO CLOUDS BELOW 12,000 FEET WITH NO
SIGNIFICANT WEATHER AND/OR OBSTRUCTIONS TO VISIBILITY.

FLZ001>010-012>015-112-114-115-260500-
PANHANDLE FLORIDA

CITY           SKY/WX    TMP DP  RH WIND       PRES   REMARKS
PENSACOLA      CLEAR     72  58  61 W5        29.95R
PENSACOLA NAS  CLEAR     68  59  73 W3        29.95R
MILTON NAS     PTCLDY    66  58  75 W7        29.96
CRESTVIEW      PTCLDY    58  55  90 CALM      29.97R
DUKE FIELD     CLEAR     64  58  80 S3        29.96R
VALPARAISO     CLEAR     68  59  72 NW7       29.96R
PANAMA CITY    FAIR      63  59  87 CALM      29.94R
TYNDALL AFB    CLEAR     67  60  76 CALM      29.96R
APALACHICOLA   CLEAR     63  58  83 CALM      29.96R

STATION/POSITION SKY/WX   TEMP    WIND        PRES    WAVE   SWELL
                          AIR SEA DIR/SP/G            HT/PER HT/PER
                          (F)     (DEG/KT/KT) (MB)    (FT/S) (FT/S)
30.1N   87.6W              75 76  240/ 10/ 12 1014.1R   2/ 7   2/ 7
29.2N   88.2W              75 78  200/  6/  8 1014.5
28.8N   86.0W              74 77  280/  8/ 10 1014.8R   3/ 6   3/ 6
PANAMA CITY BEAC           75 78  270/ 12/ 14 1014.5R
TOWER C                    73     270/  8/  9 1015.3R
28.5N   84.5W              74 76  260/  8/ 12 1014.9R   4/ 7   3/ 7

$$
FLZ011-016>038-118-127-128-134-139-239-260500-
NORTH FLORIDA

CITY           SKY/WX    TMP DP  RH WIND       PRES   REMARKS
MARIANNA       CLEAR     65  57  75 W3        29.95R
TALLAHASSEE    CLEAR     64  57  78 CALM      29.96R
PERRY          PTCLDY    64  59  85 CALM      29.97R
CROSS CITY     CLEAR     61  57  88 CALM      29.97R
LAKE CITY      FAIR      63  59  88 CALM      29.97R
GAINESVILLE    CLEAR     64  56  75 CALM      29.97R
WILLISTON      CLEAR     63  59  88 CALM      29.98S
PALATKA        FAIR      63  57  82 W6        29.98R
MAYPORT NAS    CLEAR     72  55  55 SW5       29.95R
JACKSONVILLE   CLEAR     63  54  72 W6        29.95R
JAX NAS        CLEAR     70  55  59 W8        29.96R
FERNANDINA BEA FAIR      70  52  52 SW5       29.94R
ST AUGUSTINE   CLEAR     68  56  65 W7        29.97R
PALM COAST     FAIR      66  56  70 W5        29.97R

STATION/POSITION SKY/WX   TEMP    WIND        PRES    WAVE   SWELL
                          AIR SEA DIR/SP/G            HT/PER HT/PER
                          (F)     (DEG/KT/KT) (MB)    (FT/S) (FT/S)
SHELL POINT      NOT AVBL
KEATON BEACH               74     270/ 10/ 13 1014.3R
CEDAR KEY                  73     270/  7/ 11 1015.4R
FERNANDINA                 72 78  220/  2/  7 1014.9R
30.7N   81.3W                 78                N/A     2/ 6
MAYPORT                    73 78  250/  7/  9 1014.5R
31.4N   80.9W              76 77  270/ 14/ 16 1013.4R   2/ 4   2/ 8
ST AUGUSTINE               69 76  260/  7/  9 1015.4R

$$
FLZ040-043>046-052-053-057-058-063-144-260500-
INTERIOR CENTRAL FLORIDA

CITY           SKY/WX    TMP DP  RH WIND       PRES   REMARKS
OCALA          CLEAR     61  58  90 S3        29.99R
THE VILLAGES     N/A     66  59  77 CALM      29.89R
LEESBURG       CLEAR     69  61  75 CALM      29.99R
SANFORD        CLEAR     68  56  65 W7        29.96S
ORLANDO EXEC   CLEAR     71  59  65 W8        29.97R
ORLANDO INTL   PTCLDY    68  58  70 W8        29.98R
KISSIMMEE      CLOUDY    68  58  70 W6        29.99R
WINTER HAVEN   PTCLDY    69  57  65 W5        30.00R
LAKELAND       PTCLDY    66  57  72 CALM      29.99R
BARTOW         FAIR      64  59  82 CALM      29.99S
OKEECHOBEE     CLOUDY    72  64  78 SW5       29.98R

$$
FLZ041-047-054-059-064-141-147-260500-
EAST CENTRAL FLORIDA

CITY           SKY/WX    TMP DP  RH WIND       PRES   REMARKS
DAYTONA BEACH  CLEAR     66  56  70 W8        29.96R
DELAND         CLEAR     66  55  68 W6        29.97R
JFK SPACE CTR  CLEAR     70  58  65 NW5       29.95R
CAPE CANAVERAL CLEAR     70  59  67 NW9       29.95R
PATRICK AFB    PTCLDY    75  58  53 NW10      29.96R
MELBOURNE      CLEAR     70  61  73 W8        29.96R
VERO BEACH     CLOUDY    73  67  81 W6        29.97R
FT PIERCE      PTCLDY    74  68  81 W3        29.96R
STUART         CLEAR     75  75 100 SW3       29.98S

STATION/POSITION SKY/WX   TEMP    WIND        PRES    WAVE   SWELL
                          AIR SEA DIR/SP/G            HT/PER HT/PER
                          (F)     (DEG/KT/KT) (MB)    (FT/S) (FT/S)
28.5N   80.2W              78 77  290/ 12/ 14 1015.3
28.9N   78.5W              79 78  210/  2/  4 1013.9R   5/ 7   5/ 7
TRIDENT PIER               74 79  260/  4/  7 1016.0R
28.4N   80.5W                 74                N/A     1/ 8
27.5N   80.2W                 70                N/A     1/11

$$
FLZ050-056-061-142-242-148-248-149-249-151-251-155-255-
160-260-260500-
WEST CENTRAL FLORIDA

CITY           SKY/WX    TMP DP  RH WIND       PRES   REMARKS
CRYSTAL RIVER  FAIR      61  57  88 CALM      29.98R
INVERNESS      FAIR      61  61 100 CALM      29.99R
BROOKSVILLE    CLEAR     63  60  90 CALM      29.99R
CLEARWATER AIR FAIR      68  61  77 CALM      29.98S
ST PETE CLEARW CLEAR     68  61  78 CALM      29.98R
TAMPA INTL     PTCLDY    73  60  63 CALM      29.99R
TAMPA EXEC     PTCLDY    63  59  88 CALM      30.00R
PLANT CITY     CLOUDY    66  61  82 CALM      30.01S
MACDILL AFB    CLEAR     68  61  76 CALM      29.99R
PETER O KNIGHT MOCLDY    72  63  73 CALM      29.99S
ST PETERSBURG  PTCLDY    76  61  59 CALM      29.97R
SARASOTA       PTCLDY    69  62  78 N3        29.98R
VENICE         FAIR      72  66  83 CALM      29.99R

STATION/POSITION SKY/WX   TEMP    WIND        PRES    WAVE   SWELL
                          AIR SEA DIR/SP/G            HT/PER HT/PER
                          (F)     (DEG/KT/KT) (MB)    (FT/S) (FT/S)
27.3N   84.2W                 77                N/A     5/ 7
CLEARWATER BEACH           75 81  310/  5/  8 1015.4R
MIDDLE TAMPA BAY           75     340/  4/  8 1015.8R
VENICE                     76 82   10/  3/  4 1014.7R

$$
FLZ066-069-070-075>078-162-262-165-265-260500-
SOUTHWEST FLORIDA AND KEYS

CITY           SKY/WX    TMP DP  RH WIND       PRES   REMARKS
PUNTA GORDA    CLOUDY    71  65  81 NW5       30.00R
FT MYERS       CLOUDY    76  67  73 CALM      29.97S
SOUTHWEST INTL CLOUDY    74  66  76 CALM      29.98R
NAPLES         PTCLDY    77  68  73 CALM      29.97S
MARCO ISLAND   CLEAR     75  70  83 CALM      29.98S
IMMOKALEE      FAIR      72  70  94 CALM      29.99R
MARATHON       CLOUDY    83  77  82 CALM      29.99R
KEY WEST NAS   PTCLDY    81  78  91 CALM      29.99R
KEY WEST INTL  CLEAR     81  77  88 CALM      29.99R

STATION/POSITION SKY/WX   TEMP    WIND        PRES    WAVE   SWELL
                          AIR SEA DIR/SP/G            HT/PER HT/PER
                          (F)     (DEG/KT/KT) (MB)    (FT/S) (FT/S)
NAPLES                        83   10/  2/  2 1014.7F
DRY TORTUGAS               80      80/  8/  9 1015.3R
SAND KEY                   81     210/  1/  2 1016.0R
LONG KEY                   83 84  210/  2/  2 1015.6R
MOLASSES REEF              82 81  230/  7/  8 1015.5R

$$
FLZ067-068-071>074-168-172>174-260500-
SOUTHEAST FLORIDA

CITY           SKY/WX    TMP DP  RH WIND       PRES   REMARKS
W PALM BEACH   PTCLDY    75  75 100 S3        29.97S
FT LAUDER-EXEC CLOUDY    82  73  74 SW6       29.98R
FT LAUDERDALE  CLOUDY    79  75  87 SW5       29.97R
POMPANO BEACH  CLOUDY    81  74  79 SW5       29.98R
PEMBROKE PINES PTCLDY    79  74  84 S5        29.99R
OPA LOCKA      CLOUDY    79  77  94 SW5       29.99R
MIAMI          MOCLDY    81  74  79 W3        29.99R
WEST KENDALL   CLOUDY    79  74  84 CALM      29.98S
HOMESTEAD      CLOUDY    77  77 100 SE3       29.98S

STATION/POSITION SKY/WX   TEMP    WIND        PRES    WAVE   SWELL
                          AIR SEA DIR/SP/G            HT/PER HT/PER
                          (F)     (DEG/KT/KT) (MB)    (FT/S) (FT/S)
PORT EVERGLADES            80     210/  3/  5 1015.0R
VIRGINIA KEY               82 83  230/  5/  7 1014.7R
LAKE WORTH                 80 81              1015.7R
FOWEY ROCKS                81 81  240/  6/  7 1016.1R
SETTLEMENT POINT           81     220/  9/ 10 1015.0R

$$




USA.gov is the U.S. government's official web portal to all federal, state and local government web resources and services.